Location: Battersea Observatory
(44.4318°N, 76.3841°W)
Time: 04:04:31
(UTC-05:00)

Explorer 7 - All Passes

Search period start: 28 January 2022 00:00
Search period end: 07 February 2022 00:00
Orbit: 483 x 674 km, 50.3° (Epoch: 27 January)

Date Brightness Start Highest point End Pass type
(mag) Time Alt. Az. Time Alt. Az. Time Alt. Az.
28 Jan - 07:35:25 10° S 07:38:12 19° SE 07:41:05 10° E daylight
28 Jan - 09:14:09 10° WSW 09:18:09 88° NNW 09:22:27 10° ENE daylight
28 Jan - 10:55:03 10° WNW 10:58:59 39° N 11:03:10 10° ENE daylight
28 Jan - 12:35:55 10° WNW 12:40:06 45° NNE 12:44:32 10° E daylight
28 Jan - 14:16:20 10° WNW 14:20:49 70° SSW 14:25:32 10° SE daylight
28 Jan - 15:57:58 10° W 16:00:48 16° SW 16:03:42 10° S daylight
29 Jan - 07:38:26 10° SSW 07:41:50 29° SE 07:45:24 10° ENE daylight
29 Jan - 09:18:03 10° WSW 09:22:02 65° NNW 09:26:18 10° ENE daylight
29 Jan - 10:59:06 10° WNW 11:03:00 37° N 11:07:09 10° ENE daylight
29 Jan - 12:39:47 10° WNW 12:44:04 54° NNE 12:48:36 10° E daylight
29 Jan - 14:20:16 10° WNW 14:24:36 48° SW 14:29:09 10° SE daylight
30 Jan - 07:41:49 10° SW 07:45:32 44° SE 07:49:28 10° ENE daylight
30 Jan - 09:22:04 10° W 09:25:58 51° NNW 09:30:09 10° ENE daylight
30 Jan - 11:03:06 10° WNW 11:07:02 37° N 11:11:11 10° ENE daylight
30 Jan - 12:43:39 10° WNW 12:47:59 68° NNE 12:52:35 10° ESE daylight
30 Jan - 14:24:18 10° WNW 14:28:21 33° SW 14:32:33 10° SSE daylight
31 Jan - 06:08:00 10° SSE 06:09:34 12° SE 06:11:09 10° ESE visible
31 Jan - 07:45:26 10° SW 07:49:18 68° SSE 07:53:24 10° ENE daylight
31 Jan - 09:26:06 10° W 09:29:57 42° NNW 09:34:03 10° ENE daylight
31 Jan - 11:07:04 10° WNW 11:11:02 40° N 11:15:16 10° E daylight
31 Jan - 12:47:29 10° WNW 12:51:52 90° NE 12:56:30 10° ESE daylight
31 Jan - 14:28:31 10° W 14:32:01 22° SW 14:35:37 10° S daylight
01 Feb - 06:10:21 10° S 06:13:08 19° SE 06:16:02 10° E visible
01 Feb - 07:49:14 10° WSW 07:53:08 84° NNW 07:57:16 10° ENE daylight
01 Feb - 09:30:10 10° WNW 09:33:57 38° N 09:37:58 10° ENE daylight
01 Feb - 11:10:58 10° WNW 11:15:01 45° NNE 11:19:20 10° E daylight
01 Feb - 12:51:22 10° WNW 12:55:41 65° SSW 13:00:16 10° SE daylight
01 Feb - 14:33:11 10° W 14:35:38 14° SW 14:38:08 10° SSW daylight
02 Feb - 06:13:25 10° SSW 06:16:47 30° SE 06:20:18 10° ENE visible
02 Feb - 07:53:09 10° WSW 07:57:01 61° NNW 08:01:07 10° ENE daylight
02 Feb - 09:34:12 10° WNW 09:37:58 36° N 09:41:57 10° ENE daylight
02 Feb - 11:14:50 10° WNW 11:18:59 55° NNE 11:23:23 10° E daylight
02 Feb - 12:55:18 10° WNW 12:59:28 44° SW 13:03:51 10° SE daylight
03 Feb - 06:16:50 10° SW 06:20:29 47° SE 06:24:20 10° ENE visible
03 Feb - 07:57:09 10° W 08:00:57 48° NNW 08:04:57 10° ENE daylight
03 Feb - 09:38:12 10° WNW 09:41:59 36° N 09:45:59 10° ENE daylight
03 Feb - 11:18:41 10° WNW 11:22:53 71° NNE 11:27:22 10° ESE daylight
03 Feb - 12:59:21 10° WNW 13:03:11 30° SW 13:07:11 10° SSE daylight
04 Feb - 04:42:45 10° SSE 04:44:29 13° SE 04:46:14 10° ESE visible
04 Feb - 06:20:29 10° SW 06:24:16 72° SSE 06:28:15 10° ENE visible
04 Feb - 08:01:12 10° W 08:04:55 40° N 08:08:51 10° ENE daylight
04 Feb - 09:42:08 10° WNW 09:45:59 39° N 09:50:03 10° E daylight
04 Feb - 11:22:31 10° WNW 11:26:45 86° SSW 11:31:15 10° ESE daylight
04 Feb - 13:03:39 10° W 13:06:51 20° SW 13:10:10 10° S daylight
05 Feb - 04:45:14 10° S 04:48:04 20° SE 04:50:59 10° E visible
05 Feb - 06:24:17 10° WSW 06:28:06 79° NNW 06:32:06 10° ENE visible
05 Feb - 08:05:16 10° WNW 08:08:55 36° N 08:12:47 10° ENE daylight
05 Feb - 09:46:01 10° WNW 09:49:57 45° NNE 09:54:07 10° E daylight
05 Feb - 11:26:24 10° WNW 11:30:33 60° SSW 11:34:59 10° SE daylight
05 Feb - 13:08:31 10° WSW 13:10:27 13° SW 13:12:25 10° SSW daylight
06 Feb - 04:48:21 10° SSW 04:51:43 32° SE 04:55:12 10° ENE visible
06 Feb - 06:28:13 10° W 06:31:59 58° NNW 06:35:56 10° ENE visible
06 Feb - 08:09:17 10° WNW 08:12:55 35° N 08:16:46 10° ENE daylight
06 Feb - 09:49:52 10° WNW 09:53:54 56° NNE 09:58:09 10° E daylight
06 Feb - 11:30:21 10° WNW 11:34:19 40° SW 11:38:31 10° SSE daylight
